New Bern, NC

9:21 AM EST on February 22, 2017 (GMT -0500)
Craven County Regional

Weather History for KEWN - January, 2014

Change the Weather History Date:

Friday, January 17, 2014

  Actual Average Record
Temperature  
Mean Temperature 44 °F 44 °F  
Max Temperature 58 °F 54 °F 78 °F (1949)
Min Temperature 29 °F 34 °F 10 °F (1977)
Degree Days  
Heating Degree Days 21 21  
Month to date heating degree days 329 357  
Since 1 July heating degree days 1182 1351  
Cooling Degree Days 0 0  
Month to date cooling degree days 1 0  
Year to date cooling degree days 1 0  
Moisture  
Dew Point 32 °F    
Average Humidity 60    
Maximum Humidity 92    
Minimum Humidity 28    
Precipitation  
Precipitation 0.00 in 0.14 in 1.21 in (2011)
Month to date precipitation 3.10 2.26  
Year to date precipitation 3.10 2.26  
Snow  
Snow 0.00 in - - ()
Month to date snowfall 0.0  
Since 1 July snowfall T  
Snow Depth 0.00 in    
Sea Level Pressure  
Sea Level Pressure 30.02 in    
Wind  
Wind Speed 7 mph (SSW)    
Max Wind Speed 17 mph    
Max Gust Speed 23 mph    
Visibility 10 miles    
Events      
T = Trace of Precipitation, MM = Missing Value Source: NWS Daily Summary

Daily Weather History Graph

Daily Weather History Graph

Search for Another Location

Airport or City:

Trip Planner

Search our weather history database for the weather conditions in past years. The results will help you decide how hot, cold, wet, or windy it might be!

Date:

Astronomy

Jan. 17, 2014 Rise Set
Actual Time 7:15 AM EST 5:21 PM EST
Civil Twilight 6:47 AM EST 5:49 PM EST
Nautical Twilight 6:16 AM EST 6:20 PM EST
Astronomical Twilight 5:46 AM EST 6:50 PM EST
Moon 7:00 PM EST (1/17) 7:46 AM EST (1/17)
Length of Visible Light 11h 01m
Length of Day
10h 06m
Full, 98% of the Moon is Illuminated
Jan 17
Full
Jan 24
Last Quarter
Jan 30
New
Feb 6
First Quarter
Feb 14
Full

Hourly Weather History & Observations

Time (EST) Temp. Windchill Dew Point Humidity Pressure Visibility Wind Dir Wind Speed Gust Speed Precip Events Conditions
12:54 AM 30.9 °F - 28.0 °F 89% 30.07 in 6.0 mi Calm Calm - N/A   Clear
1:54 AM 30.9 °F - 28.0 °F 89% 30.07 in 8.0 mi Calm Calm - N/A   Clear
2:54 AM 30.0 °F - 28.0 °F 92% 30.07 in 7.0 mi Calm Calm - N/A   Clear
3:54 AM 33.1 °F 30.0 °F 30.0 °F 89% 30.07 in 10.0 mi WSW 3.5 mph - N/A   Clear
4:54 AM 34.0 °F 29.8 °F 28.9 °F 82% 30.06 in 10.0 mi SW 4.6 mph - N/A   Clear
5:54 AM 32.0 °F 28.7 °F 28.0 °F 85% 30.07 in 10.0 mi South 3.5 mph - N/A   Clear
6:54 AM 33.1 °F 28.7 °F 27.0 °F 78% 30.09 in 10.0 mi SW 4.6 mph - N/A   Clear
7:54 AM 35.1 °F 30.1 °F 27.0 °F 72% 30.09 in 10.0 mi SSW 5.8 mph - N/A   Clear
8:54 AM 39.9 °F 35.1 °F 28.0 °F 63% 30.09 in 10.0 mi SW 6.9 mph - N/A   Clear
9:54 AM 45.0 °F 40.6 °F 28.9 °F 53% 30.11 in 10.0 mi SSW 8.1 mph - N/A   Clear
10:54 AM 50.0 °F - 25.0 °F 38% 30.10 in 10.0 mi WSW 11.5 mph 18.4 mph N/A   Clear
11:54 AM 53.1 °F - 23.0 °F 31% 30.07 in 10.0 mi SSW 10.4 mph 16.1 mph N/A   Clear
12:54 PM 55.9 °F - 24.1 °F 29% 30.02 in 10.0 mi SW 8.1 mph - N/A   Clear
1:54 PM 57.0 °F - 25.0 °F 29% 29.99 in 10.0 mi South 11.5 mph - N/A   Clear
2:54 PM 57.0 °F - 28.0 °F 33% 29.97 in 10.0 mi South 13.8 mph 18.4 mph N/A   Clear
3:54 PM 55.9 °F - 32.0 °F 40% 29.97 in 10.0 mi SSW 12.7 mph 20.7 mph N/A   Clear
4:54 PM 53.1 °F - 34.0 °F 48% 29.96 in 10.0 mi South 8.1 mph - N/A   Clear
5:54 PM 51.1 °F - 37.0 °F 59% 29.96 in 10.0 mi South 10.4 mph - N/A   Clear
6:54 PM 52.0 °F - 37.9 °F 59% 29.95 in 10.0 mi South 10.4 mph - N/A   Clear
7:54 PM 52.0 °F - 39.0 °F 61% 29.94 in 10.0 mi South 8.1 mph - N/A   Clear
8:54 PM 53.1 °F - 42.1 °F 66% 29.95 in 10.0 mi SW 5.8 mph - N/A   Clear
9:54 PM 53.1 °F - 44.1 °F 71% 29.94 in 10.0 mi SSW 6.9 mph - N/A   Clear
10:54 PM 53.1 °F - 44.1 °F 71% 29.92 in 10.0 mi SSW 6.9 mph - N/A   Clear
11:54 PM 53.1 °F - 44.1 °F 71% 29.87 in 10.0 mi South 4.6 mph - N/A   Mostly Cloudy